Погода в Волгограде

Погода в Волгограде : погода сейчас, прогноз погоды и архив. Всё, что Вы хотите узнать о погоде в Волгограде!

Хотите узнать прогноз погоды в Волгограде? Тогда Вам сюда: Погода в Волгограде

Поиск расширенной информации на нашем сайте:

Другие новости

Новости СМИ2

Главная страница сайта

Новости сайта

02.10.2013

Напоминаем, что на нашем новом сайте вы можете получить высокодетализированные прогнозы погоды по пунктам России, СНГ и мира (включающие важные для авиации метеовеличины, такие как направление и скорость ветра, видимость, явления погоды, количество и форма облачности, нижняя и верхняя граница облачности), а также ознакомиться с разнообразными материалами по авиационной метеорологии и подборкой полезных ссылок на эту тему.

Сайт Метеоцентр.Азия посвящён разработке технологий оптимизации авиаметеорологического обслуживания, включая проектирование и перспективное создание нескольких автоматизированных авиаметеорологических систем:
- система выпуска высокодетальных прогностических карт явлений погоды для нижнего воздушного пространства по России и ближнему зарубежью;
- система верификации прогнозов TAF (выпускаемых синоптиками официальных АМСГ РФ и ближнего зарубежья) и AUTOTAF (выпускаемых сайтом Метеоцентр.Азия) - выявление ошибок, онлайн-сопоставление с фактической погодой METAR, автоматическое внесение коррективов в прогнозы при резком отклонении фактической погоды от прогноза, подсчёт оправдываемости прогнозов по элементам и в целом;
- система обработки, анализа и отображения авиаметеорологической информации для применения провайдерами метеорологической информации.


Погода в Волгограде - сегодня

Время (UTC), дата Ветер
(°,м/с) 
Видим.   Явления Облачность Т
(°С)
Тd
(°С)
f(%) Тe
(°С)
Pmin
(гПа)
dP
(гПа)
Po
(мм)
O2
(г/м3)
Тmin Tmax R s Состояние
почвы
09 22.04.17 270 (З) 10-15{15}  4000 м  слаб. ливневой дождь  9/9 400 м кучево-дожд. 
[Cb calv]
+7 +4.9 86 +4  1004.6  -0.8  740  290           
12 22.04.17 290 (З) 12-17{17}  10 км  слаб. ливневой дождь  8/8 800 м кучево-дожд. 
[Cb calv]
+8.4 +2.8 68 +5  1006.1  1.5  741  289           
15 22.04.17 280 (З) 12-18{18}  10 км  {ливн. осадки}  8/8 720 м кучево-дожд. 
[Cb calv]
+7.2 +2.4 72 +4  1009.1  2.9  743  291    +10.2       
18 22.04.17 230 (ЮЗ) 7{18}  10 км  {ливн. осадки}  5/5 1000 м 
[Sc]
+5.6 +2.5 80 +3  1011.6  2.4  745  294           
21 22.04.17 250 (З) 9-11{11}  10 км    6/6 1000 м 
[Sc]
+6.8 +3.9 82 +4  1011.6  0.3  745  292           
00 23.04.17 240 (ЮЗ) 6{11}  10 км    4/4 1500 м 
[Sc]
+5.2 +3.2 87 +3  1011.7  -0.1  745  294           
03 23.04.17 230 (ЮЗ) 10 км    3/0 средняя 
[Ac trans]
+4.8 +3.5 91 +3  1012.5  0.8  745  295  +3.7         
06 23.04.17 240 (ЮЗ) 10 км    9/9 330 м 
[St]
+8.6 +5.8 83 +7  1012.7  0.4  746  290           
09 23.04.17 220 (ЮЗ) 10 км    10/6 540 м верхняя 
[Sc|Cs]
+11.5 +5.6 67 +10  1011.5  -1  745  287           
12 23.04.17 170 (Ю) 10 км  слаб. ливневой дождь  9/9 1000 м кучево-дожд. 
[Cb calv]
+8.4 +5.6 83 +7  1009.5  -2.1  743  290           
15 23.04.17 090 (В) 10 км  в посл. час ливневой дождь{гроза}  9/9 1000 м кучево-дожд. 
[Cb calv]
+6.8 +5.8 93 +5  1006.3  -3.1  741  290    +11.8       
18 23.04.17 040 (СВ) 5{10}  10 км  {гроза, ливн. осадки}  9/9 1000 м 
[Sc]
+6.4 +5.2 92 +5  1006.7  0.3  741  291           
21 23.04.17 080 (В) 9-11{11}  10 км  слаб. ливневой дождь  9/9 800 м кучево-дожд. 
[Cb calv]
+6.3 +5.1 92 +3  1002.7  -3.9  738  290           
00 24.04.17 110 (В) 6{14}  4000 м  слаб. ливневой дождь  9/9 180 м кучево-дожд. 
[Cb calv]
+6.4 +6 97 +4  999.2  -2.6  735  289           
03 24.04.17 240 (ЮЗ) 9-13{13}  10 км  слаб. дождь{ливн. осадки}  10/8 210 м средняя 
[Frnb|As op]
+6.2 +5.4 95 +3  996.5  -2.6  734  288  +5.8         
06 24.04.17 290 (З) 8-11{13}  10 км  слаб. дождь{ливн. осадки}  10/10 180 м 
[Frnb|Ns]
+7.6 +6.8 95 +5  997.8  1.2  734  287  +5.6         
09 24.04.17 290 (З) 11-14{16}  10 км  {ливн. осадки}  8/8 420 м 
[St]
+7.4 +4.2 80 +4  1003.7  5.8  739  289           
12 24.04.17 310 (СЗ) 10-13{17}  10 км  {дождь}  9/9 1000 м 
[Sc]
+10.6 +3.9 63 +8  1006.8  3.3  741  287           
15 24.04.17 290 (З) 4{14}  10 км    6/6 1000 м 
[Sc]
+11.7 +2.8 54 +11  1009.3  2.4  743  287    +12.8       
18 24.04.17 200 (Ю) 3{14}  10 км    9/9 1000 м 
[Sc]
+8.2 +5.4 82 +8  1011.2  1.6  744  290           
21 24.04.17 210 (ЮЗ) 5{13}  10 км  {ливн. осадки}  9/9 930 м 
[Sc]
+5.5 +2.8 83 +3  1011.4  744  294           
00 25.04.17 230 (ЮЗ) 7{13}  10 км  в посл. час ливневой дождь  9/9 240 м кучево-дожд. 
[Cb calv]
+4 +2.9 93 +1  1010.7  -0.7  744  295           
03 25.04.17 270 (З) 10 км    10/10 120 м 
[St]
+4.3 +3.7 96 +2  1012.9  2.1  745  295  +3.6         
06 25.04.17 330 (СЗ) 9-10{15}  10 км  {ливн. осадки}  9/6 400 м средняя 
[St|Ac trans]
+6.6 +3.2 79 +4  1016.9  749  294           
09 25.04.17 290 (З) 8-11{14}  10 км    8/8 930 м кучево-дожд. 
[Cb calv]
+9.9 +3.2 63 +8  1020  3.3  751  292           
Время (UTC), дата Ветер
(°,м/с) 
Видим.   Явления Облачность Т
(°С)
Тd
(°С)
f(%) Тe
(°С)
Pmin
(гПа)
dP
(гПа)
Po
(мм)
O2
(г/м3)
Тmin Tmax R s Состояние
почвы

Для получения пояснительной информации подведите курсор к названию столбца.

ПОГОДА в Волгограде - архив

Всё, что Вы хотите узнать о погоде в Волгограде - удобно и подробно!

Выберите нужную дату (начиная с 1 января 2015* года) и нажмите кнопку "Найти".
Будут отображены архивные сводки погоды по пункту Волгоград, начиная с указанной даты.


Отображать данные в формате CSV (для использования в таблицах Excel)


Внимание! Наш архив погоды предназначен исключительно для личного некоммерческого использования в познавательных целях. Если Вам необходимы официальные справки о состоянии погоды (для производственных, юридических, коммерческих и т.п. целей), обращайтесь в органы Росгидромета.

*Примечание: данная дата относится к архиву по метеостанциям СССР (Россия, СНГ, Балтия).
Архив по метеостанциям Зарубежной Европы и Азии (кроме Китая) хранится 10 дней, по другим регионам земного шара (Китай, Африка, Америка, Австралия, Океания) - 1 день.

Волгоград - район местоположения метеостанции


Название, широта, долгота, высота метеостанции:
Волгоград (Гумрак) 48.8°ш. 44.4°д. 134 м над ур. моря [Российская Федерация]

Дополнительная информация

В oтличие oт бoльшинства пoгoдных сайтoв мы публикуем пoдрoбную метеoинфoрмацию в детальнoм прoфессиoнальнoм фoрмате.

Характеристики температуры и влажнoсти вoздуха измеряются на высoте 2 м в тени вдали oт зданий и деревьев.
Скoрoсть ветра измеряется на высoте 10 м (на урoвне рoста челoвека скoрoсть ветра ниже в 1.5-2 раза). Если метеoстанция нахoдится в гoрoде или в лесу, тo скoрoсть ветра занижена на 2-4 м/с пo сравнению с oткрытым местoм. Скoрoсть ветра над акватoриями крупных рек и oзёр, а также на вершинах хoлмoв на 2-5 м/с выше, чем в oбычных услoвиях.
Атмoсфернoе давление в разных тoчках местнoсти мoжет значительнo oтличаться oт давления на метеoстанции, в зависимoсти oт услoвий рельефа (при пoдъёме на 10 м давление пoнижается примернo на 1 мм рт.ст.).